Temperature
20 20 20 20 20 20 20 20 20 20 20 20 20 20 19 19 19 19 19 19 19 19 18 18 18 18 18 18 18 18 18 18 18 18 18 17 17 17 17 17 17 17 17
21 20 20 20 20 20 20 20 20 20 20 20 20 19 19 19 19 19 19 19 19 19 18 18 18 18 18 18 18 18 18 18 18 18 17 17 17 17 17 17 17 17 17
21 21 20 20 20 20 20 20 20 20 20 19 19 19 19 19 19 19 19 19 19 19 18 18 18 18 18 18 18 18 18 17 17 18 17 17 17 17 17 17 17 17 17
21 21 20 20 20 20 20 20 20 20 19 19 19 19 19 19 19 19 19 19 19 19 19 18 18 18 18 18 18 17 17 17 17 17 18 17 17 17 17 17 17 17 17
21 21 21 20 20 20 20 19 19 19 19 19 19 19 19 19 19 19 19 19 19 19 19 18 18 18 18 18 17 17 17 17 17 18 18 18 18 17 17 17 17 17 17
21 21 21 20 20 20 20 19 19 19 19 19 19 19 19 19 19 19 19 19 19 19 19 19 18 18 18 18 17 17 17 17 17 18 18 18 18 17 17 17 17 17 17
21 21 20 20 20 20 20 20 19 19 19 19 19 19 19 19 19 19 19 19 19 19 19 19 18 18 18 17 17 17 17 17 18 18 18 18 18 17 17 17 17 17 17
21 20 20 20 20 20 20 20 20 19 19 19 19 19 19 19 19 19 19 19 19 19 19 19 18 18 18 17 17 17 18 18 18 18 18 18 18 18 17 17 17 17 17
21 20 20 20 20 20 20 20 19 19 19 19 19 19 19 19 19 19 19 19 19 19 19 19 18 18 18 18 17 17 17 18 18 18 18 18 18 18 18 17 17 17 17
20 20 20 20 20 19 19 19 19 19 19 19 19 19 19 19 19 19 19 19 19 19 19 18 18 18 18 18 18 17 18 18 18 18 18 18 18 18 18 17 17 17 17
19 19 19 19 19 19 19 19 19 19 19 19 19 19 19 19 19 19 19 19 19 19 18 18 18 18 18 18 18 18 18 18 18 18 18 18 18 18 18 18 17 17 17
19 19 19 19 19 19 19 19 19 19 19 19 19 18 18 18 18 18 18 18 18 18 18 18 18 18 18 18 18 18 18 18 18 18 18 18 18 18 18 18 17 17 17
19 19 19 19 19 19 19 19 19 19 19 18 18 18 18 18 18 18 18 18 18 18 18 18 18 18 18 18 18 18 18 18 18 18 18 18 18 18 18 18 18 17 17
19 19 19 19 19 19 19 19 19 19 18 18 18 18 18 18 18 18 18 18 18 18 18 18 18 18 18 18 18 18 18 18 18 18 18 17 17 17 18 18 18 18 17
19 19 19 19 19 19 19 19 19 18 18 18 18 18 18 18 18 18 18 18 18 18 18 18 18 18 18 18 17 17 17 17 17 17 17 17 17 17 17 17 17 17 17
19 19 19 19 19 19 19 19 18 18 18 18 18 18 18 18 18 17 17 17 18 18 17 17 17 17 17 17 17 17 17 17 17 17 17 17 17 17 17 17 17 17 17
19 19 19 19 19 19 18 18 18 18 18 18 18 18 17 17 17 17 17 17 17 17 17 17 17 17 17 17 17 17 17 17 17 17 17 17 17 17 17 17 17 17 17
19 19 19 18 18 18 18 18 18 18 18 18 18 18 17 17 17 17 17 17 17 17 17 17 17 17 17 17 17 17 17 17 17 17 17 17 17 17 17 17 17 17 17
19 19 18 18 18 18 18 18 18 18 18 18 18 17 17 17 17 17 17 17 17 17 17 17 17 17 17 17 17 17 17 17 17 17 17 17 17 17 17 16 16 16 16
19 18 18 18 18 18 18 18 18 18 18 18 17 17 17 17 17 17 17 17 17 17 16 16 17 17 17 17 17 17 17 17 17 17 17 16 16 16 16 16 16 16 16
18 18 18 18 18 18 18 18 18 18 18 17 17 17 17 17 17 17 16 16 16 16 16 16 16 16 16 16 16 17 17 17 17 17 17 16 16 16 16 16 16 16 16
18 18 18 18 18 18 18 18 18 18 17 17 17 17 17 16 16 16 16 16 16 16 16 16 16 16 16 16 16 16 16 16 16 16 16 16 16 16 16 16 16 16 16
18 18 18 18 17 17 17 17 17 17 17 17 16 16 16 16 16 16 16 16 16 16 16 16 16 16 16 16 16 16 16 16 16 16 16 16 16 16 16 16 16 16 15
18 18 18 18 17 17 17 17 17 17 17 17 17 16 16 16 16 16 16 16 16 16 15 15 15 15 16 16 16 16 16 16 16 16 16 16 16 16 16 16 16 15 15
18 18 18 17 17 17 17 17 17 17 17 17 17 16 16 16 16 16 16 15 15 15 15 15 15 15 15 15 15 15 15 15 16 16 15 15 15 15 15 15 15 15 15
18 17 17 17 17 17 17 17 17 17 17 17 16 16 16 16 16 15 15 15 15 15 15 15 15 15 15 15 15 15 15 15 15 15 15 15 15 15 15 15 15 15 15
Wind_Speed
11 16 23 23 22 22 22 22 22 21 21 22 21 21 21 20 19 19 18 18 17 16 16 16 16 16 16 16 17 17 17 18 19 18 18 18 18 19 19 19 18 17 19
16 21 25 24 23 23 22 22 21 21 21 21 20 20 20 19 19 18 18 17 17 17 16 16 16 16 16 16 16 16 17 18 18 18 18 17 18 18 18 18 17 16 18
20 21 24 25 24 23 22 22 21 21 20 20 20 19 19 19 18 18 17 17 17 16 16 16 16 15 15 15 15 15 16 16 18 18 17 15 16 18 18 18 18 17 17
20 21 23 26 25 24 23 22 21 20 20 19 19 19 18 18 18 18 17 17 16 16 16 15 15 14 14 14 13 13 13 14 15 16 13 13 15 17 18 17 17 17 17
16 20 24 27 25 24 23 22 21 20 20 19 18 18 18 17 17 17 17 16 16 16 15 14 14 13 13 12 12 11 10 10 13 13 13 14 14 17 17 17 16 16 16
15 19 24 26 25 24 23 22 21 20 19 19 18 18 17 17 17 17 16 16 15 15 14 13 12 12 12 11 11 10 10 11 12 13 14 14 14 16 16 16 16 15 15
15 17 23 26 25 24 23 22 21 20 19 19 18 17 17 16 16 16 16 15 15 14 13 12 11 10 10 11 10 10 10 12 12 13 13 13 14 16 15 15 15 15 14
17 15 21 25 25 24 23 22 21 20 19 19 18 17 16 16 16 16 15 15 14 13 12 10 9 9 9 9 9 10 11 13 13 13 12 13 15 15 15 14 14 14 14
15 14 14 20 22 23 23 22 21 20 19 18 17 17 16 15 15 15 15 14 13 12 10 9 7 7 7 7 8 9 11 13 13 11 11 12 15 15 14 14 13 13 13
13 12 11 14 17 18 19 21 21 20 19 18 17 16 16 15 15 15 14 13 12 11 9 7 6 5 4 5 6 9 11 12 11 10 10 12 15 15 14 13 13 13 13
12 10 10 10 12 15 16 19 19 19 18 18 16 16 15 13 13 13 12 12 11 10 8 6 4 3 2 3 5 7 10 9 10 9 10 13 14 14 14 13 13 13 12
15 12 11 11 11 13 14 14 14 14 14 14 13 13 12 11 11 11 12 12 11 9 7 5 3 1 2 3 5 7 8 9 9 9 10 14 14 14 14 13 13 13 12
16 14 12 11 10 10 8 11 10 10 11 11 12 12 11 10 9 10 9 9 8 8 5 4 3 2 2 2 3 5 8 8 8 8 11 15 15 14 14 14 14 13 13
16 15 13 12 10 9 9 8 8 7 8 8 10 12 10 6 6 7 6 7 6 6 4 4 3 2 2 2 3 5 7 8 8 8 11 14 15 15 15 15 15 14 14
15 14 13 12 12 10 8 7 8 6 7 9 10 11 11 7 5 5 5 6 6 5 5 3 3 2 2 2 4 5 5 6 8 8 10 13 15 15 15 15 15 15 15
15 15 13 13 12 10 9 7 7 8 8 9 9 11 12 10 7 5 4 4 5 6 6 5 4 2 1 2 2 4 5 6 8 9 10 13 15 15 15 15 15 15 15
15 13 12 12 11 11 10 8 7 8 9 7 8 11 11 10 9 7 4 3 4 5 6 4 3 3 2 1 2 2 3 5 7 8 10 10 12 14 14 14 15 15 15
14 12 11 11 10 10 9 8 7 8 8 7 9 10 10 10 10 7 4 3 4 5 5 3 3 3 2 2 1 0 1 2 5 7 9 9 10 10 12 14 14 15 15
13 13 11 9 10 10 9 8 7 7 7 8 9 9 9 10 10 8 4 3 6 4 3 3 3 2 2 1 0 0 0 1 2 5 5 8 9 10 10 12 14 14 14
11 10 11 10 9 9 8 8 6 6 5 7 7 8 9 9 10 8 5 4 5 4 3 3 3 2 1 1 0 1 1 1 1 2 3 4 7 8 8 8 9 11 13
11 10 10 10 8 8 8 8 7 6 6 5 5 8 9 9 10 8 4 4 4 4 3 3 3 3 1 1 3 3 3 3 1 0 1 1 2 5 6 7 7 7 8
12 11 10 10 9 9 7 6 5 6 5 5 4 6 9 10 10 8 6 4 4 4 4 3 3 2 1 2 3 3 3 4 4 2 1 1 1 2 3 5 6 6 6
12 13 12 10 9 8 8 7 7 5 5 3 4 4 5 9 9 9 8 5 4 4 4 3 4 4 2 2 2 4 3 2 2 3 2 1 0 1 0 2 4 5 5
12 11 11 11 10 9 9 10 11 8 6 5 5 4 4 7 8 9 8 7 5 4 4 3 3 3 4 2 2 2 2 3 3 1 3 3 2 0 1 0 2 3 4
12 11 11 10 9 8 9 10 10 7 6 5 5 6 5 4 6 8 8 6 5 4 4 4 5 4 3 3 2 2 3 3 3 3 0 3 3 3 2 1 2 3 4
11 11 11 11 9 9 9 9 9 10 9 9 8 7 5 4 4 6 7 6 5 4 5 5 5 6 4 4 3 3 3 3 2 3 2 1 2 3 3 2 1 1 4
Wind_Direction
150 151 145 138 132 127 123 118 115 111 109 107 105 104 103 103 103 103 104 103 101 100 99 99 98 98 99 101 103 106 109 109 110 111 112 115 115 114 113 111 109 110 112
150 151 146 141 136 132 127 123 120 116 114 111 109 108 107 107 107 107 107 106 105 103 101 101 99 99 100 101 104 106 109 109 109 110 110 112 114 114 113 112 111 115 114
146 149 147 143 139 135 132 128 125 122 119 116 114 113 111 110 110 110 109 108 107 105 102 101 100 99 99 100 102 106 110 112 111 108 106 105 110 113 114 114 113 114 116
145 147 147 145 141 139 136 133 130 127 124 121 119 117 115 114 113 112 112 111 109 107 105 103 101 99 97 96 97 102 108 115 115 112 108 108 111 115 115 115 115 116 118
144 146 149 146 144 142 140 137 134 132 129 127 124 122 120 119 118 116 115 113 112 110 107 104 101 98 95 92 92 93 101 114 119 111 110 109 113 119 118 118 118 119 120
143 147 150 148 146 144 143 141 138 136 134 132 130 127 125 124 123 121 119 117 115 113 110 106 101 96 91 86 84 81 92 109 116 114 116 117 119 123 122 121 121 122 122
144 148 150 149 148 147 146 144 142 141 139 137 135 133 131 129 128 126 123 121 120 118 114 110 104 96 88 82 78 75 98 116 119 122 122 123 125 126 126 124 124 124 124
145 146 151 151 150 149 149 148 146 145 144 141 140 138 136 135 133 131 130 127 125 123 121 116 109 100 90 81 74 73 98 115 119 127 128 130 133 132 130 129 128 127 127
144 145 149 152 151 152 151 150 150 149 147 145 144 142 141 140 139 137 136 134 132 131 129 124 115 105 93 79 71 74 102 119 122 132 138 139 139 136 136 135 134 133 132
142 145 147 148 149 150 152 153 153 153 151 150 149 148 146 145 144 143 142 142 141 140 139 136 126 112 92 74 70 78 102 122 129 137 139 147 145 143 143 143 142 141 140
147 149 147 147 147 148 152 156 156 157 157 155 155 155 151 149 149 151 153 152 150 150 149 149 145 128 91 65 77 90 102 123 132 141 150 156 152 151 151 150 149 149 148
157 158 157 153 152 153 157 154 157 158 160 158 159 157 154 156 161 162 164 162 159 158 157 159 156 109 76 57 80 98 112 130 138 151 164 164 162 160 160 158 157 156 155
158 162 161 160 161 163 153 156 159 159 160 159 160 159 159 159 165 162 164 165 163 162 158 157 144 111 103 82 90 108 125 134 150 164 174 172 171 169 169 167 166 165 165
158 163 162 164 163 164 154 160 161 160 165 167 170 166 158 153 154 159 165 166 163 161 158 150 140 140 115 104 121 129 134 144 158 161 176 181 180 178 178 175 174 175 174
158 160 163 166 167 162 158 164 160 163 171 170 168 167 160 154 155 157 162 166 168 167 161 154 143 134 120 119 132 132 134 147 165 175 183 190 190 189 188 185 183 183 183
161 162 166 169 169 162 162 163 159 163 163 157 157 161 158 155 153 153 153 158 161 166 164 158 153 140 130 127 110 122 132 151 175 188 194 197 201 198 197 196 194 193 192
161 165 166 167 166 161 161 162 157 156 152 151 151 152 151 151 150 149 142 143 159 156 145 133 122 109 98 81 74 95 132 153 177 188 192 199 206 208 208 206 204 203 201
160 165 167 164 163 161 156 152 148 149 145 144 142 145 147 147 144 138 132 140 151 139 130 121 109 96 83 76 67 20 133 166 181 191 198 204 205 209 214 213 212 211 209
160 164 165 159 164 155 145 142 140 138 135 137 137 138 140 142 143 136 134 139 135 122 118 129 108 116 108 96 221 207 252 198 197 194 196 203 206 209 212 217 217 218 217
152 157 158 156 156 140 131 128 127 125 130 132 134 138 138 139 139 132 126 123 125 110 104 106 103 91 113 159 51 37 337 285 198 180 201 199 204 208 205 208 217 224 226
149 154 153 149 150 140 139 141 141 143 141 136 140 141 138 136 135 128 119 115 117 115 120 118 101 82 53 73 67 24 357 357 12 258 205 171 185 196 192 199 206 218 230
160 163 156 155 157 152 151 147 143 139 139 140 136 135 139 137 136 132 124 126 120 111 99 94 94 98 43 74 110 89 27 360 355 357 11 150 173 186 181 198 199 209 221
163 166 166 164 158 154 149 133 127 113 106 111 127 136 143 139 134 130 128 126 120 119 117 114 112 115 95 34 82 130 129 196 317 342 355 18 24 141 163 171 187 197 204
167 163 159 161 160 161 153 147 151 152 152 166 157 150 145 141 136 134 132 128 122 120 122 121 110 113 111 75 35 50 120 150 132 9 339 344 352 39 290 215 151 164 167
165 163 159 156 161 164 159 156 155 152 152 148 142 141 143 138 138 137 133 128 124 124 124 115 102 98 104 113 101 79 67 59 78 122 359 330 343 329 309 274 182 169 165
163 162 160 158 164 166 160 158 156 154 151 150 152 154 152 142 135 138 134 130 129 126 126 124 115 108 104 103 99 94 109 104 103 119 141 289 313 310 329 334 305 165 158
Height
1521 1523 1526 1527 1529 1530 1532 1533 1534 1536 1537 1538 1539 1540 1541 1542 1543 1544 1544 1545 1546 1546 1547 1547 1548 1548 1549 1550 1550 1551 1552 1552 1553 1553 1554 1555 1555 1556 1557 1557 1558 1559 1560
1518 1522 1526 1528 1529 1531 1533 1534 1536 1537 1538 1539 1540 1541 1542 1543 1544 1545 1546 1547 1547 1548 1549 1549 1550 1550 1551 1552 1552 1553 1554 1555 1555 1556 1556 1557 1558 1559 1559 1560 1560 1561 1562
1518 1522 1525 1528 1530 1532 1534 1535 1537 1538 1539 1541 1541 1542 1543 1544 1545 1546 1547 1548 1549 1549 1550 1551 1552 1552 1553 1554 1555 1555 1556 1557 1558 1558 1559 1559 1560 1561 1561 1562 1563 1563 1564
1518 1521 1525 1528 1530 1532 1534 1536 1538 1539 1541 1542 1543 1544 1545 1546 1547 1548 1548 1549 1550 1551 1552 1553 1554 1554 1555 1556 1557 1558 1558 1559 1560 1560 1561 1562 1562 1563 1563 1564 1564 1565 1566
1518 1522 1525 1528 1531 1533 1535 1537 1539 1540 1542 1543 1544 1545 1546 1547 1548 1549 1550 1551 1552 1553 1554 1555 1555 1556 1557 1558 1559 1560 1560 1561 1562 1562 1563 1564 1564 1565 1565 1566 1566 1567 1568
1519 1522 1525 1528 1531 1533 1535 1537 1539 1541 1542 1543 1545 1546 1547 1548 1549 1550 1551 1552 1553 1554 1555 1556 1557 1558 1559 1560 1561 1562 1563 1563 1564 1564 1565 1566 1566 1567 1567 1568 1568 1569 1570
1518 1522 1525 1528 1531 1533 1535 1538 1540 1541 1543 1544 1545 1547 1548 1549 1550 1551 1552 1554 1555 1556 1557 1558 1559 1561 1562 1562 1563 1564 1564 1565 1566 1566 1567 1567 1568 1568 1569 1569 1570 1571 1571
1518 1522 1526 1528 1531 1533 1535 1538 1540 1541 1543 1544 1546 1547 1549 1550 1551 1553 1554 1555 1556 1557 1559 1560 1561 1562 1563 1564 1565 1565 1566 1566 1567 1568 1568 1569 1570 1570 1571 1571 1572 1572 1573
1518 1522 1526 1529 1531 1533 1536 1538 1540 1542 1543 1545 1546 1548 1549 1551 1552 1553 1555 1556 1557 1559 1560 1561 1562 1564 1565 1566 1566 1566 1567 1568 1568 1569 1569 1570 1571 1571 1572 1573 1573 1574 1575
1519 1522 1526 1529 1531 1533 1535 1538 1540 1542 1544 1545 1547 1548 1550 1551 1553 1554 1556 1557 1558 1560 1561 1562 1564 1565 1566 1567 1567 1567 1568 1569 1570 1570 1571 1571 1572 1573 1573 1574 1575 1575 1576
1518 1522 1525 1528 1531 1533 1536 1538 1540 1542 1544 1546 1547 1549 1550 1552 1553 1555 1556 1558 1559 1560 1562 1563 1564 1565 1567 1567 1568 1568 1569 1570 1571 1571 1572 1572 1573 1573 1574 1575 1576 1576 1577
1516 1520 1524 1528 1530 1533 1535 1537 1540 1542 1544 1545 1547 1548 1550 1552 1553 1555 1556 1558 1559 1561 1562 1564 1565 1566 1567 1568 1569 1569 1569 1570 1571 1571 1572 1573 1573 1574 1575 1576 1576 1577 1578
1514 1518 1523 1526 1529 1532 1534 1536 1539 1541 1543 1545 1547 1548 1550 1551 1553 1555 1557 1558 1560 1561 1562 1564 1565 1566 1567 1568 1569 1569 1570 1570 1571 1572 1572 1573 1574 1574 1575 1576 1577 1578 1578
1513 1517 1521 1525 1528 1531 1533 1536 1538 1540 1542 1544 1546 1548 1549 1551 1553 1555 1556 1558 1559 1561 1562 1564 1565 1566 1567 1568 1569 1569 1570 1570 1571 1572 1573 1573 1574 1575 1575 1576 1577 1578 1579
1511 1515 1519 1523 1527 1530 1532 1535 1537 1539 1541 1543 1545 1547 1549 1551 1552 1554 1556 1558 1559 1561 1562 1563 1565 1566 1567 1568 1568 1569 1570 1570 1571 1572 1572 1573 1574 1575 1575 1576 1577 1578 1579
1509 1513 1518 1522 1525 1528 1531 1533 1536 1538 1541 1543 1545 1547 1548 1550 1552 1554 1555 1557 1558 1560 1561 1563 1564 1565 1566 1567 1568 1569 1569 1569 1570 1571 1572 1572 1573 1574 1575 1575 1576 1577 1578
1507 1512 1516 1519 1523 1526 1529 1531 1534 1537 1540 1542 1544 1546 1548 1550 1551 1553 1555 1556 1558 1559 1560 1562 1563 1564 1565 1566 1567 1568 1568 1569 1570 1571 1572 1572 1573 1574 1574 1575 1576 1576 1577
1505 1510 1514 1517 1521 1524 1527 1529 1532 1535 1538 1541 1543 1545 1547 1549 1550 1552 1554 1555 1556 1558 1559 1560 1562 1563 1564 1565 1566 1567 1568 1569 1569 1570 1571 1572 1572 1573 1573 1574 1575 1575 1576
1503 1507 1511 1515 1519 1522 1525 1528 1531 1534 1537 1540 1542 1544 1546 1547 1549 1551 1552 1554 1555 1557 1558 1559 1560 1562 1563 1564 1565 1566 1567 1568 1569 1569 1570 1571 1571 1572 1572 1573 1574 1574 1574
1503 1506 1510 1513 1518 1521 1524 1527 1530 1533 1536 1538 1541 1543 1544 1546 1548 1550 1552 1553 1554 1556 1557 1558 1559 1560 1562 1563 1564 1565 1566 1567 1568 1568 1569 1569 1570 1571 1571 1572 1572 1572 1573
1502 1506 1509 1512 1516 1519 1522 1525 1528 1531 1534 1537 1540 1542 1544 1545 1547 1549 1550 1552 1553 1555 1556 1557 1558 1559 1561 1562 1563 1564 1565 1566 1567 1567 1567 1568 1569 1569 1570 1570 1570 1571 1571
1501 1504 1508 1512 1515 1518 1522 1524 1528 1531 1533 1536 1539 1541 1543 1545 1546 1548 1550 1551 1553 1553 1554 1556 1557 1558 1560 1561 1562 1563 1564 1566 1566 1566 1567 1567 1568 1568 1568 1569 1569 1569 1569
1500 1503 1506 1510 1514 1518 1521 1524 1527 1530 1533 1535 1538 1540 1542 1544 1546 1548 1549 1551 1552 1553 1554 1555 1556 1558 1559 1560 1561 1563 1563 1564 1565 1566 1566 1566 1567 1567 1567 1567 1568 1568 1567
1499 1502 1505 1509 1512 1517 1520 1522 1525 1527 1530 1534 1536 1539 1541 1543 1545 1547 1548 1550 1551 1552 1553 1555 1556 1557 1559 1559 1560 1561 1563 1563 1564 1565 1566 1566 1566 1566 1566 1566 1566 1566 1566
1498 1502 1505 1508 1512 1515 1518 1521 1524 1527 1530 1533 1536 1538 1541 1543 1544 1546 1548 1549 1550 1552 1553 1554 1555 1557 1558 1559 1560 1561 1561 1562 1563 1563 1564 1565 1565 1565 1565 1565 1565 1565 1565
1497 1500 1503 1507 1510 1513 1516 1520 1523 1526 1529 1532 1534 1537 1539 1542 1543 1545 1547 1548 1550 1551 1552 1553 1555 1556 1557 1558 1559 1560 1561 1561 1562 1562 1563 1563 1564 1564 1564 1564 1564 1564 1564